Rochester, NY

5:29 PM EST on January 18, 2018 (GMT -0500)
Greater Rochester International

Weather History for KROC - June, 2013

Change the Weather History Date:

Tuesday, June 25, 2013

  Actual Average Record
Temperature  
Mean Temperature 77 °F 69 °F  
Max Temperature 83 °F 79 °F 97 °F (1952)
Min Temperature 70 °F 59 °F 41 °F (1979)
Degree Days  
Heating Degree Days 0 1  
Month to date heating degree days 58 64  
Since 1 June heating degree days 58 64  
Since 1 July heating degree days 6056 6642  
Cooling Degree Days 12 5  
Month to date cooling degree days 78 79  
Year to date cooling degree days 149 109  
Since 1 June cooling degree days 78 79  
Growing Degree Days 26 (Base 50)    
Moisture  
Dew Point 66 °F    
Average Humidity 69    
Maximum Humidity 79    
Minimum Humidity 58    
Precipitation  
Precipitation T in 0.12 in 1.86 in (1958)
Month to date precipitation 4.95 2.76  
Year to date precipitation 16.78 15.22  
Snow  
Snow 0.00 in 0.00 in 0.00 in ()
Month to date snowfall 0.0 0.0  
Since 1 June snowfall 0.0 0.0  
Since 1 July snowfall 78.1 99.5  
Snow Depth 0.00 in    
Sea Level Pressure  
Sea Level Pressure 29.88 in    
Wind  
Wind Speed 11 mph (WSW)    
Max Wind Speed 23 mph    
Max Gust Speed 32 mph    
Visibility 10 miles    
Events Rain    
T = Trace of Precipitation, MM = Missing Value Source: NWS Daily Summary

Daily Weather History Graph

Daily Weather History Graph

Search for Another Location

Airport or City:

Trip Planner

Search our weather history database for the weather conditions in past years. The results will help you decide how hot, cold, wet, or windy it might be!

Date:

Astronomy

Jun. 25, 2013 Rise Set
Actual Time 5:32 AM EDT 8:54 PM EDT
Civil Twilight 4:56 AM EDT 9:29 PM EDT
Nautical Twilight 4:10 AM EDT 10:15 PM EDT
Astronomical Twilight 3:13 AM EDT 11:13 PM EDT
Moon 10:32 PM EDT (6/25) 8:14 AM EDT (6/25)
Length of Visible Light 16h 32m
Length of Day
15h 21m
Waning Gibbous, 93% of the Moon is Illuminated
Jun 25
Waning Gibbous
Jun 30
Last Quarter
Jul 8
New
Jul 15
First Quarter
Jul 22
Full

Hourly Weather History & Observations

Time (EDT) Temp. Heat Index Dew Point Humidity Pressure Visibility Wind Dir Wind Speed Gust Speed Precip Events Conditions
12:54 AM 72.0 °F - 64.0 °F 76% 29.95 in 10.0 mi SW 6.9 mph - N/A   Partly Cloudy
1:54 AM 71.1 °F - 64.0 °F 78% 29.94 in 10.0 mi SW 5.8 mph - N/A   Partly Cloudy
2:54 AM 71.1 °F - 64.0 °F 78% 29.93 in 10.0 mi SW 6.9 mph - N/A   Scattered Clouds
3:54 AM 71.1 °F - 64.9 °F 81% 29.91 in 10.0 mi SW 8.1 mph - N/A   Partly Cloudy
4:54 AM 72.0 °F - 64.9 °F 78% 29.90 in 10.0 mi SW 8.1 mph - N/A   Partly Cloudy
5:54 AM 72.0 °F - 64.9 °F 78% 29.90 in 10.0 mi SW 8.1 mph - N/A   Mostly Cloudy
6:54 AM 72.0 °F - 64.9 °F 78% 29.90 in 10.0 mi SW 8.1 mph - N/A   Mostly Cloudy
7:54 AM 73.9 °F - 66.0 °F 76% 29.90 in 10.0 mi SW 8.1 mph - N/A   Overcast
8:54 AM 75.0 °F - 66.9 °F 76% 29.89 in 10.0 mi SW 8.1 mph - N/A   Overcast
9:54 AM 77.0 °F - 68.0 °F 74% 29.90 in 10.0 mi SW 10.4 mph - N/A   Overcast
10:20 AM 75.2 °F - 66.2 °F 73% 29.92 in 10.0 mi WSW 20.7 mph 32.2 mph 0.00 in Rain Light Rain
10:41 AM 73.4 °F - 66.2 °F 78% 29.91 in 10.0 mi WSW 9.2 mph - 0.00 in Rain Light Rain
10:54 AM 73.9 °F - 66.9 °F 79% 29.91 in 10.0 mi WSW 9.2 mph - 0.00 in   Overcast
11:54 AM 80.1 °F 82.3 °F 66.9 °F 64% 29.89 in 10.0 mi WSW 18.4 mph 28.8 mph N/A   Overcast
12:54 PM 81.0 °F 83.0 °F 66.0 °F 60% 29.87 in 10.0 mi West 18.4 mph 27.6 mph N/A   Mostly Cloudy
1:54 PM 77.0 °F - 68.0 °F 74% 29.87 in 10.0 mi West 8.1 mph - 0.00 in   Overcast
2:54 PM 81.0 °F 83.8 °F 68.0 °F 65% 29.86 in 10.0 mi West 15.0 mph 19.6 mph N/A   Overcast
3:54 PM 81.0 °F 83.8 °F 68.0 °F 65% 29.86 in 10.0 mi West 9.2 mph - N/A   Overcast
4:54 PM 82.0 °F 84.9 °F 68.0 °F 62% 29.83 in 10.0 mi West 17.3 mph 24.2 mph N/A   Mostly Cloudy
5:54 PM 82.0 °F 84.5 °F 66.9 °F 60% 29.81 in 10.0 mi West 13.8 mph 23.0 mph N/A   Mostly Cloudy
6:54 PM 80.1 °F 81.9 °F 64.9 °F 60% 29.80 in 10.0 mi WSW 17.3 mph 24.2 mph N/A   Scattered Clouds
7:54 PM 78.1 °F - 63.0 °F 60% 29.81 in 10.0 mi WSW 15.0 mph - N/A   Mostly Cloudy
8:54 PM 75.9 °F - 63.0 °F 64% 29.81 in 10.0 mi WSW 10.4 mph - N/A   Mostly Cloudy
9:54 PM 75.0 °F - 62.1 °F 64% 29.83 in 10.0 mi WSW 9.2 mph - N/A   Overcast
10:54 PM 73.0 °F - 64.0 °F 73% 29.84 in 10.0 mi North 3.5 mph - 0.00 in Rain Light Rain
11:54 PM 72.0 °F - 64.0 °F 76% 29.82 in 10.0 mi WSW 9.2 mph - 0.00 in Rain Light Rain